EW8775 Weather Reports


time (UTC)temp
C
wind
direction
speed
KPH
gust
KPH
rain 1hr
cm
rain 24hr
cm
rain mn
cm
humidity
%
barometer
mb
20260508043017 17 68 3.2 6.4 0.00 0.00 0.00 35 1013.2
20260508040016 17 68 1.6 6.4 0.00 0.00 0.00 35 1013.3
20260508033016 17 90 3.2 6.4 0.00 0.00 0.00 34 1012.8
20260508030016 19 23 1.6 6.4 0.00 0.00 0.00 33 1012.8
20260508023016 21 0.0 6.4 0.00 0.00 0.00 28 1012.9
20260508020016 22 338 1.6 8.0 0.00 0.00 0.00 26 1012.9
20260508013016 22 0 1.6 9.7 0.00 0.00 0.00 25 1012.6
20260508010056 22 0 3.2 14.5 0.00 0.00 0.00 27 1013.4
20260508003016 22 338 4.8 14.5 0.00 0.00 0.00 25 1012.8
20260508000036 22 338 3.2 19.3 0.00 0.00 0.00 26 1013.4
20260507233015 23 338 3.2 16.1 0.00 0.00 0.00 24 1014.2
20260507230016 23 338 4.8 19.3 0.00 0.00 0.00 24 1014.6
20260507223016 23 338 3.2 17.7 0.00 0.00 0.00 26 1015.2
20260507220017 23 315 1.6 12.9 0.00 0.00 0.00 25 1015.7
20260507213018 23 203 1.6 9.7 0.00 0.00 0.00 23 1015.8
20260507210057 22 23 1.6 8.0 0.00 0.00 0.00 24 1016.5
20260507203017 21 180 4.8 16.1 0.00 0.00 0.00 25 1017.0
20260507200017 21 180 3.2 12.9 0.00 0.00 0.00 25 1017.8
20260507193017 20 180 4.8 14.5 0.00 0.00 0.00 27 1018.1
20260507190017 20 180 6.4 19.3 0.00 0.00 0.00 24 1018.4
20260507183057 18 203 8.0 19.3 0.00 0.00 0.00 26 1018.5
20260507180017 17 180 6.4 20.9 0.00 0.00 0.00 26 1018.6
20260507173057 16 203 1.6 9.7 0.00 0.00 0.00 37 1018.9
20260507170017 14 0.0 4.8 0.00 0.00 0.00 43 1018.4
20260507163017 13 0.0 4.8 0.00 0.00 0.00 43 1018.5
20260507160057 12 0.0 1.6 0.00 0.00 0.00 44 1018.9
20260507153017 11 0.0 4.8 0.00 0.00 0.00 43 1019.0
20260507150017 11 0.0 3.2 0.00 0.00 0.00 47 1019.6
20260507143016 10 0.0 3.2 0.00 0.00 0.00 47 1019.4
20260507140056 8 0.0 3.2 0.00 0.00 0.00 54 1019.5
20260507133016 7 158 4.8 14.5 0.00 0.00 0.00 57 1019.1
20260507130017 8 23 3.2 6.4 0.00 0.00 0.00 51 1019.2
20260507123017 7 45 1.6 6.4 0.00 0.00 0.00 55 1018.2
20260507120016 7 45 1.6 8.0 0.00 0.00 0.00 57 1018.8
20260507113016 7 68 1.6 6.4 0.00 0.00 0.00 51 1018.3
20260507110056 8 45 1.6 4.8 0.00 0.03 0.00 53 1018.5
20260507103016 7 45 1.6 4.8 0.00 0.03 0.00 56 1018.7
20260507100016 8 68 1.6 4.8 0.00 0.03 0.00 50 1019.1
20260507093016 8 68 3.2 6.4 0.00 0.03 0.00 46 1019.1
20260507090016 8 68 3.2 4.8 0.00 0.30 0.00 44 1019.2
20260507083016 8 45 3.2 4.8 0.00 0.30 0.00 47 1019.6
20260507080016 9 45 1.6 4.8 0.00 0.30 0.00 44 1019.7
20260507073016 10 23 1.6 6.4 0.00 0.30 0.00 41 1020.2
20260507070015 11 113 1.6 9.7 0.00 0.33 0.00 38 1019.9
20260507063015 11 90 3.2 6.4 0.00 0.36 0.00 38 1019.8
20260507060015 11 113 3.2 11.3 0.00 0.36 0.36 37 1019.7
20260507053016 11 113 4.8 11.3 0.00 0.36 0.36 37 1019.3
20260507050116 11 113 4.8 14.5 0.00 0.36 0.36 36 1019.3